{"data":{"norad_id":55940,"epoch":"2026-09-20T22:00:03.000096Z","epoch_age_seconds":70096,"freshness":"FRESH","line1":"1 55940U 23037AC  26263.91670139  .00012033  00000+0  84517-3 0  9999","line2":"2 55940  70.0012 152.1081 0002984 304.3508 151.1981 15.05289986  5766","mean_motion":15.05289986,"eccentricity":0.0002984,"inclination_deg":70.0012,"raan_deg":152.1081,"arg_perigee_deg":304.3508,"mean_anomaly_deg":151.1981,"bstar":0.00084517,"rev_number":576,"period_min":95.662630681979,"perigee_km":548.54814157968,"apogee_km":552.68322117992,"semimajor_km":6928.7526813798,"source":"CELESTRAK","updated_at":"2026-09-21T09:00:33.327525Z"}}